Whiting Fld NAS, FL

11:48 PM CST on November 17, 2019 (GMT -0600)
Whiting Field Naval Air Station (North)

Weather History for KNSE - September, 2019

Change the Weather History Date:

Wednesday, September 18, 2019

  Actual Average Record
Temperature  
Mean Temperature 86 °F -  
Max Temperature 100 °F 83 °F 100 °F (2019)
Min Temperature 71 °F 67 °F 64 °F (2000)
Cooling Degree Days 20    
Growing Degree Days 36 (Base 50)    
Moisture  
Dew Point 70 °F    
Average Humidity 66    
Maximum Humidity 97    
Minimum Humidity 30    
Precipitation  
Precipitation 0.00 in - - ()
Sea Level Pressure  
Sea Level Pressure 29.91 in    
Wind  
Wind Speed 4 mph (WNW)    
Max Wind Speed 8 mph    
Max Gust Speed -    
Visibility 10 miles    
Events      
Averages and records for this station are not official NWS values.
T = Trace of Precipitation, MM = Missing Value Source: NWS Daily Summary

Daily Weather History Graph

Daily Weather History Graph

Search for Another Location

Airport or City:

Astronomy

Sep. 18, 2019 Rise Set
Actual Time 6:34 AM CDT 6:50 PM CDT
Civil Twilight 6:09 AM CDT 7:14 PM CDT
Nautical Twilight 5:41 AM CDT 7:42 PM CDT
Astronomical Twilight 5:13 AM CDT 8:10 PM CDT
Moon 9:40 PM CDT 10:21 AM CDT
Length of Visible Light 13h 04m
Length of Day
12h 16m
Waning Gibbous, 82% of the Moon is Illuminated
Sep 18
Waning Gibbous
Sep 21
Last Quarter
Sep 28
New
Oct 5
First Quarter
Oct 13
Full

Hourly Weather History & Observations

Time (CDT) Temp. Heat Index Dew Point Humidity Pressure Visibility Wind Dir Wind Speed Gust Speed Precip Events Conditions
12:56 AM 75.9 °F - 73.0 °F 91% 29.92 in 10.0 mi NW 4.6 mph - N/A   Clear
1:56 AM 75.9 °F - 73.0 °F 91% 29.91 in 10.0 mi WNW 4.6 mph - N/A   Clear
2:56 AM 73.0 °F - 71.1 °F 93% 29.90 in 10.0 mi Calm Calm - N/A   Clear
3:56 AM 71.1 °F - 70.0 °F 96% 29.91 in 10.0 mi West 3.5 mph - N/A   Clear
4:56 AM 72.0 °F - 71.1 °F 97% 29.92 in 10.0 mi Calm Calm - N/A   Clear
5:56 AM 73.0 °F - 71.1 °F 93% 29.93 in 10.0 mi West 4.6 mph - N/A   Clear
6:56 AM 73.0 °F - 71.1 °F 93% 29.93 in 10.0 mi WNW 4.6 mph - N/A   Partly Cloudy
7:56 AM 77.0 °F - 73.0 °F 88% 29.94 in 10.0 mi WNW 5.8 mph - N/A   Clear
8:56 AM 82.9 °F 88.0 °F 72.0 °F 69% 29.95 in 10.0 mi NNW 3.5 mph - N/A   Clear
9:56 AM 87.1 °F 92.8 °F 71.1 °F 59% 29.94 in 10.0 mi Calm Calm - N/A   Clear
10:56 AM 91.0 °F 96.6 °F 70.0 °F 50% 29.95 in 10.0 mi WSW 4.6 mph - N/A   Clear
11:56 AM 95.0 °F 99.0 °F 66.9 °F 40% 29.94 in 10.0 mi WNW 4.6 mph - N/A   Clear
12:56 PM 98.1 °F 101.2 °F 64.9 °F 34% 29.92 in 10.0 mi Variable 4.6 mph - N/A   Partly Cloudy
1:56 PM 100.0 °F 103.0 °F 64.0 °F 31% 29.90 in 10.0 mi Variable 4.6 mph - N/A   Scattered Clouds
2:56 PM 97.0 °F 99.3 °F 64.0 °F 34% 29.88 in 10.0 mi WNW 6.9 mph - N/A   Scattered Clouds
3:56 PM 99.0 °F 100.5 °F 63.0 °F 30% 29.86 in 10.0 mi WSW 6.9 mph - N/A   Scattered Clouds
4:56 PM 99.0 °F 100.5 °F 63.0 °F 30% 29.85 in 10.0 mi WNW 6.9 mph - N/A   Scattered Clouds
5:56 PM 93.0 °F 99.0 °F 70.0 °F 47% 29.85 in 10.0 mi SSE 8.1 mph - N/A   Partly Cloudy
6:56 PM 90.0 °F 95.4 °F 70.0 °F 52% 29.88 in 10.0 mi WSW 5.8 mph - N/A   Scattered Clouds
7:56 PM 87.1 °F 92.0 °F 70.0 °F 57% 29.91 in 10.0 mi WSW 4.6 mph - N/A   Scattered Clouds
8:56 PM 82.9 °F 87.5 °F 71.1 °F 67% 29.91 in 10.0 mi West 6.9 mph - N/A   Partly Cloudy
9:56 PM 82.0 °F 86.3 °F 71.1 °F 69% 29.91 in 10.0 mi West 8.1 mph - N/A   Scattered Clouds
10:45 PM 80.1 °F 83.6 °F 71.1 °F 74% 29.97 in 10.0 mi Calm Calm - N/A   Scattered Clouds
10:56 PM 79.0 °F - 71.1 °F 77% 29.92 in 10.0 mi North 3.5 mph - N/A   Clear
11:56 PM 77.0 °F - 71.1 °F 82% 29.92 in 10.0 mi Calm Calm - N/A   Clear